www.pogodaiklimat.ru

Погода и климат >> Архив погоды >> Новая Зеландия >> Хикс-Бей


ПОГОДА в Хикс-Бей

  • Прогноз погоды в Хикс-Бей
  • Монитор погоды в Хикс-Бей

АРХИВ ПОГОДЫ в Хикс-Бей

Время (UTC), дата Ветер
(напр.,м/с)
 
Видим.   Явления Облачность Т
(С)
Тd
(С)
f
(%)
Тe
(С)
Тes
(С)
Комфортность P
(гПа)
Po
(гПа)
Тmin
(С)
Tmax
(С)
R
(мм)
R24
(мм)
S
(см)
06 8.09 З 6 н/о н/о +12.4 +9.6 83 +10 +10 1000.2 994.9 0.2
09 8.09 ЮЗ 3 н/о н/о +11.2 +9.4 89 +9 +9 1001.7 996.3
12 8.09 ЮВ 2 н/о н/о +11.1 +9.9 92 +10 +10 1002.0 996.6 +14.1 0.8
15 8.09 ЮВ 8 н/о н/о +9.9 +8.1 89 +6 +6 1001.2 995.8
18 8.09 Ю 7 н/о н/о +9.6 +7.3 86 +6 +6 1001.2 995.8
21 8.09 ЮВ 9 н/о н/о +9.7 +8.1 90 +5 +5 1001.6 996.2
00 9.09 Ю 10 н/о н/о +8.6 +6.1 84 +4 +4 1001.8 996.4 +8.5 18
03 9.09 ЮВ 13 н/о н/о +10.5 +8.6 88 +6 +6 1000.0 994.6
06 9.09 ЮВ 12 н/о н/о +8.6 +7.8 95 +3 +3 1001.6 996.2 1
09 9.09 ЮВ 11 н/о н/о +8.1 +7.3 95 +3 +3 1002.2 996.8
12 9.09 ЮВ 10 н/о н/о +8.2 +7.2 93 +3 +3 1002.3 996.9 +11.7 4
15 9.09 ЮВ 11 н/о н/о +8.4 +7.2 92 +3 +3 1001.5 996.1
18 9.09 ЮВ 12 н/о н/о +8.1 +7.1 93 +2 +2 1001.6 996.2 4
21 9.09 ЮВ 10 н/о н/о +8.3 +6.5 88 +3 +3 1002.5 997.1
00 10.09 ЮВ 12 н/о н/о +9.2 +7.3 88 +4 +4 1002.6 997.2 +7.8 11
03 10.09 ЮВ 10 н/о н/о +8.6 +6.8 88 +3 +3 1001.6 996.2
06 10.09 ЮВ 10 н/о н/о +8.5 +6.7 88 +3 +3 1001.8 996.4 4
09 10.09 ЮВ 11 н/о н/о +9.1 +6.4 83 +4 +4 1002.3 996.9
12 10.09 ЮВ 8 н/о н/о +9.4 +6.3 81 +5 +5 1002.6 997.2 +9.8 1
15 10.09 Ю 7 н/о н/о +9.7 +5.8 77 +6 +6 1003.2 997.8
18 10.09 ЮВ 3 н/о н/о +9.2 +6.4 83 +7 +7 1004.4 999.0
21 10.09 ЮЗ 2 н/о н/о +13.4 +6.1 61 +13 +13 1007.1 1001.7
00 11.09 СЗ 8 н/о н/о +14.5 +8.7 68 +12 +12 1006.4 1001.1
03 11.09 З 7 н/о н/о +15.2 +8.2 63 +13 +13 1005.9 1000.6
06 11.09 Ю 5 н/о н/о +12.2 +6.6 69 +10 +10 1009.4 1004.0
09 11.09 ЮВ 4 н/о н/о +11.6 +7.3 75 +9 +9 1011.7 1006.3
12 11.09 Ю 8 н/о н/о +11.2 +5.5 68 +8 +8 1012.7 1007.3
15 11.09 Ю 8 н/о н/о +10.4 +5.9 74 +7 +7 1012.8 1007.4
18 11.09 ЮВ 1 н/о н/о +8.7 +7.3 91 +9 +9 1014.4 1008.9 2
21 11.09 СВ 1 н/о н/о +10.4 +8.8 90 +10 +10 1015.9 1010.4
00 12.09 СЗ 4 н/о н/о +12.0 +9.5 85 +10 +10 1015.1 1009.7 +8.6 3
03 12.09 СЗ 9 н/о н/о +13.9 +7.5 65 +11 +11 1013.4 1008.0
06 12.09 З 6 н/о н/о +10.9 +6.1 72 +8 +8 1013.9 1008.5 0.2
09 12.09 З 6 н/о н/о +11.4 +6.9 74 +9 +9 1014.7 1009.3
12 12.09 З 9 н/о н/о +11.3 +7.1 75 +8 +8 1014.2 1008.8 +14.6
15 12.09 З 10 н/о н/о +10.9 +6.9 76 +7 +7 1013.2 1007.8
18 12.09 З 7 н/о н/о +10.3 +5.2 71 +7 +7 1013.7 1008.2
21 12.09 З 10 н/о н/о +13.8 +7.8 67 +11 +11 1014.2 1008.8
00 13.09 З 11 н/о н/о +15.9 +8.4 61 +14 +14 1013.5 1008.2 +9.3 0.2
03 13.09 З 12 н/о н/о +16.0 +9.7 66 +14 +14 1011.7 1006.4
06 13.09 З 9 н/о н/о +13.5 +9.7 78 +11 +11 1013.1 1007.7
09 13.09 З 9 н/о н/о +13.8 +10.6 81 +11 +11 1014.5 1009.1
12 13.09 З 6 н/о н/о +12.0 +8.3 78 +9 +9 1015.5 1010.1 +16.9
15 13.09 З 5 н/о н/о +11.8 +7.4 74 +10 +10 1014.8 1009.4
18 13.09 З 7 н/о н/о +11.9 +9.1 83 +9 +9 1015.7 1010.3
21 13.09 З 7 н/о н/о +15.8 +11.5 76 +14 +14 1016.4 1011.0
00 14.09 СЗ 8 н/о н/о +16.8 +11.3 70 +15 +15 1015.1 1009.8 +10.7
03 14.09 З 7 н/о н/о +15.5 +11.9 79 +14 +14 1014.0 1008.6
06 14.09 З 6 н/о н/о +13.1 +10.1 82 +11 +11 1013.8 1008.4
09 14.09 СЗ 8 н/о н/о +13.5 +10.9 84 +11 +11 1013.4 1008.0
12 14.09 СЗ 13 н/о н/о +12.8 +12.0 95 +9 +9 1011.5 1006.1 +17.9 0.8
15 14.09 СЗ 12 н/о н/о +14.0 +12.2 89 +11 +11 1008.8 1003.4
18 14.09 З 9 н/о н/о +12.8 +10.7 87 +10 +10 1009.4 1004.0 3
21 14.09 З 10 н/о н/о +14.2 +8.3 68 +11 +11 1011.5 1006.1
00 15.09 З 10 н/о н/о +15.9 +9.2 64 +14 +14 1011.5 1006.2 +11.4 3
03 15.09 З 11 н/о н/о +14.6 +8.6 67 +12 +12 1010.4 1005.1

 

Местоположение метеостанции Хикс-Бей (Новая Зеландия): широта -37.55 долгота 178.30 высота над уровнем моря 46 м.

В архиве по умолчанию представлена погода в Хикс-Бей за последнюю неделю. Архивные данные за месяц целиком и за предыдущие месяцы, начиная с января 2011 года, Вы можете получить, выбрав интересующий диапазон дат из раскрывающегося списка и нажав кнопку "Ввод!".


*Определитесь, кто Вы:
робот инопланетянин человек

Внимание! Время в таблицах - всемирное. Для получения местного времени необходимо прибавить поправку, которая равна 12 ч.

Смотрите также архив погоды в соседних городах и на ближайших метеорологических станциях:

Погода в Гисборне (Новая Зеландия) (126 км)
Погода в Тауранге (Новая Зеландия) (185 км)
Погода на Таупо (Новая Зеландия) (236 км)
Погода в Нейпире (Новая Зеландия) (246 км)
Погода на Уэйауру (Новая Зеландия) (311 км)
Погода в Окленде (Новая Зеландия) (316 км)
Погода в Тахароа (Новая Зеландия) (323 км)
Погода на Мокохинау (Новая Зеландия) (339 км)
Погода в Пальмерстон-Норте (Новая Зеландия) (386 км)
Погода в Нью-Плимуте (Новая Зеландия) (395 км)

Пояснения к столбцам:

Ветер - указаны скорость ветра в м/с - средняя за 10 мин, порывы в срок и между сроками (в фигурных скобках) и направление, откуда дует ветер: С - северный, СВ - северо-восточный, В - восточный, ЮВ - юго-восточный, Ю - южный, ЮЗ - юго-западный, З - западный, СЗ - северо-западный.
Видимость - горизонтальная дальность видимости в метрах или километрах. При видимости от 1 до 10 км при отсутствии осадков обычно наблюдается дымка, при ухудшении видимости до 1 км и менее - туман. В сухую погоду видимость может ухудшаться дымом, пылью или мглою.
Явления - указаны атмосферные явления, наблюдавшиеся в срок или в последний час перед сроком; фигурными скобками обозначены явления, наблюдавшиеся между сроками (за 1-3 часа до срока); квадратными скобками обозначены град или гололедные отложения с указанием их диаметра в мм.
Облачность - указаны через наклонную черту общая и нижняя облачность в баллах и высота нижней границы облаков в метрах; квадратными скобками обозначены формы облаков: Ci - перистые, Cs - перисто-слоистые, Cc - перисто-кучевые, Ac - высококучевые, As - высокослоистые, Sc - слоисто-кучевые, Ns - слоисто-дождевые, Cu - кучевые, Cb - кучево-дождевые. Подробнее классификацию облаков см. в Атласе облаков (PDF).
T - Температура воздуха - температура, измеренная на высоте 2 м над землей.
Td - Температура точки росы - температура, при понижении до которой содержащийся в воздухе водяной пар достигнет насыщения.
f - Относительная влажность воздуха - влажноcть воздуха, измеренная на высоте 2 м над землей.
Te - Эффективная температура - температура, которую ощущает одетый по сезону человек в тени. Характеристика душности погоды. При расчете учитывается влияние влажности воздуха и скорости ветра на теплоощущения человека.
Tes - Эффективная температура на солнце - температура, которую ощущает человек, с поправкой на солнечный нагрев. Характеристика знойности погоды. Зависит от высоты солнца над горизонтом, облачности и скорости ветра. Ночью, в пасмурную погоду, а также при ветре 12 м/с и более поправка равна нулю.
P - Атмосферное давление - приведенное к уровню моря атмосферное давление.
Po - Атмосферное давление - измеренное на уровне метеостанции атмосферное давление.
Tmin - Минимальная температура - минимум температуры воздуха на высоте 2 м над землей.
Tmax - Максимальная температура - максимум температуры воздуха на высоте 2 м над землей.
R - Количество осадков - Количество выпавших осадков за период времени, мм. При наведении курсора мыши на число - период времени, за который выпало указанное количество осадков.
R24 - Количество осадков - Количество выпавших осадков за 24 часа, мм.
S - Снежный покров - Высота снежного покрова, см. При наведении курсора мыши на число - состояние снежного покрова и степень покрытия местности в баллах.